[[{"header":{"parameterUnit":"m.s-1","parameterCategory":1,"la1":30.2992,"la2":30.254,"lo1":-89.0895,"lo2":-89.0443,"dy":0.0025,"dx":0.0025,"nx":19,"ny":19,"refTime":"2026-03-25T03:00:00:Z","depth":0,"parameterNumber":2,"parameterNumberName":"U-component_of_WINDS"},"data":[0,0,0,-0.6501,-0.6503,-0.6575,-0.6575,-0.667,-0.6671,0,0,0,0,0,0,0,0,0,0,0,-0.6479,-0.648,-0.6501,-0.6503,-0.6575,-0.6575,-0.667,-0.6671,0,0,0,0,0,0,0,0,0,0,0,-0.6479,-0.648,-0.648,-0.6503,-0.6575,-0.6575,-0.667,-0.6615,0,0,0,0,0,0,0,0,0,0,-0.6545,-0.6523,-0.648,-0.648,-0.6504,-0.6575,-0.6575,-0.6612,-0.6619,-0.6638,0,-0.6653,0,-0.6663,-0.6677,-0.6678,0,0,0,-0.6504,-0.6518,-0.6538,-0.6481,-0.6504,-0.6575,-0.6543,-0.6616,-0.6623,-0.6646,-0.6654,-0.6658,-0.6665,-0.6678,-0.6678,-0.6781,-0.6782,0,0,-0.65,-0.6492,-0.6533,-0.6542,-0.6528,-0.654,-0.6545,-0.662,-0.6629,-0.6655,-0.666,-0.6666,-0.6679,-0.6679,-0.6781,-0.6781,0,0,0,-0.6488,-0.649,-0.6508,-0.6538,-0.6551,-0.6542,-0.6548,-0.6626,-0.6632,-0.6661,-0.6668,-0.6679,-0.668,-0.678,-0.6781,-0.6793,0,0,0,-0.6486,-0.6482,-0.6506,-0.6502,-0.6549,-0.6589,-0.6552,-0.6627,-0.6636,-0.6667,-0.6679,-0.6681,-0.678,-0.6781,-0.6792,-0.68,0,0,0,-0.6475,-0.6481,-0.6491,-0.6501,-0.6531,-0.6588,-0.6598,-0.6629,-0.664,-0.6678,-0.6681,-0.678,-0.6781,-0.679,-0.6798,-0.6825,0,0,0,-0.6462,-0.6502,-0.6491,-0.6538,-0.6531,-0.6594,-0.6598,-0.6646,-0.668,-0.668,-0.678,-0.6781,-0.679,-0.6797,-0.6824,-0.6846,-0.6854,0,0,-0.6508,-0.6507,-0.6535,-0.6528,-0.659,-0.6583,-0.6649,-0.6689,-0.6701,-0.6755,-0.6757,-0.6792,-0.6798,-0.6825,-0.6903,-0.6909,0,0,0,-0.6547,-0.6568,-0.6586,-0.6617,-0.6647,-0.6674,-0.6704,-0.6719,-0.6764,-0.6726,-0.6809,-0.6813,-0.6829,-0.684,-0.6845,-0.686,-0.6786,-0.6785,-0.6785,-0.6601,-0.6613,-0.6661,-0.6682,-0.6712,-0.6743,-0.6769,-0.6795,-0.68,-0.6819,-0.6835,-0.6881,-0.6893,-0.6898,-0.6912,-0.6848,-0.6848,-0.6848,-0.6848,-0.667,-0.6701,-0.6705,-0.6753,-0.6766,-0.6808,-0.684,-0.6842,-0.6884,-0.687,-0.6885,-0.6868,-0.6904,-0.6918,-0.6849,-0.6849,-0.6849,-0.6849,-0.6848,-0.6706,-0.6723,-0.6739,-0.6785,-0.682,-0.6841,-0.6881,-0.6892,-0.6904,-0.6918,-0.6937,-0.6937,-0.6938,-0.6926,-0.6926,-0.6926,-0.6927,-0.6927,-0.6927,-0.6737,-0.6755,-0.6786,-0.6822,-0.6843,-0.6873,-0.6906,-0.6928,-0.6956,-0.6962,-0.6962,-0.6965,-0.6905,-0.689,-0.6929,-0.6929,-0.6929,-0.6928,-0.6928,-0.6802,-0.6789,-0.6837,-0.6858,-0.6902,-0.6936,-0.695,-0.6995,-0.7016,-0.7036,-0.7036,-0.6989,-0.699,-0.6986,-0.6973,-0.7032,-0.7032,-0.7032,-0.7032,-0.6833,-0.6834,-0.6885,-0.6919,-0.6954,-0.6971,-0.7028,-0.7054,-0.708,-0.7094,-0.7087,-0.7071,-0.7066,-0.707,-0.7064,-0.7053,-0.713,-0.7131,-0.7131,-0.6874,-0.6879,-0.6923,-0.6945,-0.698,-0.7011,-0.7064,-0.7105,-0.7132,-0.7135,-0.7105,-0.7101,-0.7076,-0.7067,-0.7069,-0.7059,-0.7038,0,0]},{"header":{"parameterUnit":"m.s-1","parameterCategory":1,"la1":30.2992,"la2":30.254,"lo1":-89.0895,"lo2":-89.0443,"dy":0.0025,"dx":0.0025,"nx":19,"ny":19,"refTime":"2026-03-25T03:00:00:Z","depth":0,"parameterNumber":3,"parameterNumberName":"V-component_of_WINDS"},"data":[0,0,0,0.768,0.768,0.7709,0.7709,0.7743,0.7743,0,0,0,0,0,0,0,0,0,0,0,0.7671,0.7671,0.768,0.768,0.7709,0.7709,0.7743,0.7743,0,0,0,0,0,0,0,0,0,0,0,0.767,0.7671,0.7671,0.7681,0.7709,0.7709,0.7743,0.7722,0,0,0,0,0,0,0,0,0,0,0.7695,0.7686,0.7671,0.7671,0.7681,0.7709,0.7709,0.7721,0.7723,0.7729,0,0.7735,0,0.774,0.7745,0.7746,0,0,0,0.7681,0.7684,0.7692,0.7671,0.7681,0.7709,0.7696,0.7722,0.7725,0.7732,0.7735,0.7737,0.774,0.7746,0.7746,0.7779,0.7779,0,0,0.7679,0.7675,0.769,0.7694,0.769,0.7695,0.7697,0.7724,0.7727,0.7735,0.7737,0.7741,0.7746,0.7746,0.7779,0.7779,0,0,0,0.7674,0.7674,0.7682,0.7692,0.7698,0.7696,0.7698,0.7726,0.7729,0.7738,0.7741,0.7746,0.7746,0.7779,0.7779,0.7782,0,0,0,0.7673,0.7671,0.7681,0.7679,0.7697,0.7712,0.7699,0.7727,0.773,0.7741,0.7746,0.7747,0.7779,0.7779,0.7781,0.7784,0,0,0,0.7669,0.7671,0.7675,0.7679,0.7691,0.7712,0.7716,0.7728,0.7732,0.7746,0.7747,0.7778,0.7779,0.7781,0.7783,0.7791,0,0,0,0.7663,0.7677,0.7675,0.7692,0.7691,0.7714,0.7716,0.7734,0.7746,0.7746,0.7779,0.7779,0.7781,0.7783,0.7791,0.7797,0.7799,0,0,0.7679,0.7679,0.7689,0.7688,0.771,0.771,0.7732,0.7747,0.7752,0.7769,0.777,0.7781,0.7783,0.7791,0.7813,0.7815,0,0,0,0.7693,0.77,0.7707,0.7718,0.773,0.774,0.7751,0.7757,0.7772,0.776,0.7787,0.7788,0.7792,0.7795,0.7797,0.7801,0.778,0.778,0.778,0.771,0.7715,0.7732,0.774,0.7751,0.7762,0.7771,0.778,0.7782,0.7788,0.7794,0.7807,0.781,0.7811,0.7815,0.7797,0.7797,0.7797,0.7797,0.7733,0.7744,0.7746,0.7763,0.7768,0.7782,0.7793,0.7794,0.7807,0.7803,0.7808,0.7803,0.7813,0.7817,0.7798,0.7798,0.7798,0.7798,0.7798,0.7745,0.7751,0.7757,0.7773,0.7785,0.7792,0.7805,0.7809,0.7812,0.7817,0.7822,0.7822,0.7822,0.7819,0.7819,0.7819,0.7819,0.7819,0.7819,0.7755,0.7761,0.7772,0.7784,0.7791,0.7801,0.7812,0.7819,0.7827,0.7829,0.7829,0.783,0.7813,0.7809,0.782,0.782,0.782,0.782,0.782,0.7777,0.7772,0.7788,0.7795,0.7809,0.782,0.7825,0.7838,0.7844,0.785,0.785,0.7837,0.7837,0.7836,0.7832,0.7849,0.7849,0.7849,0.7849,0.7786,0.7787,0.7803,0.7814,0.7825,0.7831,0.7847,0.7855,0.7862,0.7866,0.7864,0.7859,0.7858,0.7859,0.7858,0.7854,0.7876,0.7876,0.7876,0.78,0.7801,0.7815,0.7822,0.7833,0.7842,0.7858,0.7869,0.7877,0.7877,0.7869,0.7868,0.786,0.7858,0.7859,0.7856,0.785,0,0]}]]